Tracking 19247 objects as of 24-Sep-2018
HD Live streaming from Space Station
objects crossing your sky now

FENGYUN 1C DEB

Track FENGYUN 1C DEB now!
10-day predictions


NORAD ID: 30732
Int'l Code: 1999-025ASS
Perigee: 802.9 km
Apogee: 990.9 km
Inclination: 99.1 °
Period: 102.8 minutes
Semi major axis: 7267 km
RCS: 0.0137 m2 (small)
Launch date: May 10, 1999
Source: People's Republic of China (PRC)
Launch site: Taiyaun Space Center, China (TSC)

Note: This is SATELLITE DEBRIS
aabbcc
Your satellite tracking list
Your tracking list is empty




NASA's NSSDC Master Catalog

Two Line Element Set (TLE):
1 30732U 99025ASS 18266.56681778 +.00000068 +00000-0 +70107-4 0  9994
2 30732 099.0946 298.8570 0129353 331.4504 183.0906 14.01175821592582
Source of the keplerian elements: AFSPC